Weather History for KMAO - October, 2012

Change the Weather History Date:

Wednesday, October 3, 2012

  Actual Average (KFLO) Record (KFLO)
Temperature  
Mean Temperature 80 °F 68 °F  
Max Temperature 86 °F 79 °F 96 °F (1986)
Min Temperature 73 °F 58 °F 38 °F (1974)
Degree Days  
Heating Degree Days 0 1  
Month to date heating degree days 3  
Since 1 July heating degree days 12  
Cooling Degree Days 14 5  
Month to date cooling degree days 15  
Year to date cooling degree days 1971  
Growing Degree Days 30 (Base 50)    
Moisture  
Dew Point 72 °F    
Average Humidity 84    
Maximum Humidity 100    
Minimum Humidity 55    
Precipitation  
Precipitation 0.00 in 0.11 in 1.59 in (1994)
Month to date precipitation 0.35  
Year to date precipitation 34.50  
Sea Level Pressure  
Sea Level Pressure 30.09 in    
Wind  
Wind Speed 5 mph (SSW)    
Max Wind Speed 9 mph    
Max Gust Speed -    
Visibility 9 miles    
Events Rain    
T = Trace of Precipitation, MM = Missing Value Source: NWS Daily Summary

Daily Weather History Graph

Daily Weather History Graph

Search for Another Location

Airport or City:

Trip Planner

Search our weather history database for the weather conditions in past years. The results will help you decide how hot, cold, wet, or windy it might be!

Date:

Astronomy

Oct. 03, 2012 Rise Set
Actual Time 7:13 AM EDT 6:58 PM EDT
Civil Twilight 6:48 AM EDT 7:23 PM EDT
Nautical Twilight 6:19 AM EDT 7:52 PM EDT
Astronomical Twilight 5:50 AM EDT 8:21 PM EDT
Moon 9:00 PM EDT (10/3) 10:24 AM EDT (10/3)
Length of Visible Light 12h 34m
Length of Day
11h 44m
Waning Gibbous, 89% of the Moon is Illuminated
Oct 3
Waning Gibbous
Oct 8
Last Quarter
Oct 15
New
Oct 21
First Quarter
Oct 29
Full

Hourly Weather History & Observations

Time (EDT) Temp. Heat Index Dew Point Humidity Pressure Visibility Wind Dir Wind Speed Gust Speed Precip Events Conditions
12:15 AM 75.2 °F - 75.2 °F 100% 30.00 in 5.0 mi South 5.8 mph - N/A   Overcast
12:35 AM 77.0 °F - 77.0 °F 100% 30.00 in 5.0 mi South 5.8 mph - N/A Rain Light Rain
12:55 AM 77.0 °F - 77.0 °F 100% 30.01 in 7.0 mi South 5.8 mph - N/A   Light Drizzle
1:15 AM - - - N/A% 30.00 in 7.0 mi South 5.8 mph - N/A   Overcast
1:35 AM - - - N/A% 30.00 in 5.0 mi South 4.6 mph - N/A   Haze
1:55 AM - - - N/A% 30.01 in 5.0 mi South 5.8 mph - N/A   Haze
2:15 AM - - - N/A% 30.01 in 5.0 mi South 6.9 mph - N/A   Haze
2:35 AM 75.2 °F - 75.2 °F 100% 30.01 in 5.0 mi South 5.8 mph - N/A   Overcast
2:55 AM 75.2 °F - 75.2 °F 100% 30.00 in 10.0 mi South 8.1 mph - N/A   Scattered Clouds
3:15 AM - - - N/A% 30.01 in 10.0 mi South 5.8 mph - N/A   Scattered Clouds
3:35 AM - - - N/A% 30.01 in 10.0 mi SSE 4.6 mph - N/A   Mostly Cloudy
3:55 AM - - - N/A% 30.02 in 7.0 mi South 3.5 mph - N/A   Overcast
4:15 AM - - - N/A% 30.02 in 7.0 mi South 3.5 mph - N/A   Overcast
4:35 AM - - - N/A% 30.03 in 7.0 mi SSE 4.6 mph - N/A   Mostly Cloudy
4:55 AM 73.4 °F - 73.4 °F 100% 30.03 in 7.0 mi SSE 5.8 mph - N/A   Overcast
5:15 AM 73.4 °F - 73.4 °F 100% 30.03 in 10.0 mi South 5.8 mph - N/A   Overcast
5:35 AM 73.4 °F - 73.4 °F 100% 30.04 in 10.0 mi SSE 5.8 mph - N/A Rain Light Rain
5:55 AM 73.4 °F - 73.4 °F 100% 30.04 in 10.0 mi South 4.6 mph - N/A   Overcast
6:15 AM - - - N/A% 30.05 in 10.0 mi South 3.5 mph - N/A   Overcast
6:55 AM - - - N/A% 30.06 in 10.0 mi Calm Calm - N/A   Overcast
7:15 AM - - - N/A% 30.06 in 7.0 mi Calm Calm - N/A   Mostly Cloudy
7:35 AM 73.4 °F - 73.4 °F 100% 30.07 in 7.0 mi Calm Calm - N/A   Mostly Cloudy
7:55 AM 73.4 °F - 73.4 °F 100% 30.07 in 7.0 mi Calm Calm - N/A   Scattered Clouds
8:15 AM 73.4 °F - 73.4 °F 100% 30.08 in 7.0 mi South 3.5 mph - N/A   Scattered Clouds
8:35 AM 73.4 °F - 73.4 °F 100% 30.08 in 7.0 mi Calm Calm - N/A   Mostly Cloudy
8:55 AM 73.4 °F - 73.4 °F 100% 30.09 in 7.0 mi Calm Calm - N/A Rain Light Rain
9:15 AM 75.2 °F - 75.2 °F 100% 30.10 in 7.0 mi South 3.5 mph - N/A   Overcast
9:35 AM 77.0 °F - 77.0 °F 100% 30.10 in 7.0 mi SSW 5.8 mph - N/A   Overcast
9:55 AM 77.0 °F - 77.0 °F 100% 30.11 in 10.0 mi SSW 3.5 mph - N/A   Mostly Cloudy
10:15 AM 77.0 °F - 77.0 °F 100% 30.11 in 10.0 mi South 3.5 mph - N/A   Scattered Clouds
10:35 AM 78.8 °F - 77.0 °F 94% 30.12 in 10.0 mi South 4.6 mph - N/A   Scattered Clouds
10:55 AM 78.8 °F - 77.0 °F 94% 30.12 in 10.0 mi South 3.5 mph - N/A   Scattered Clouds
11:15 AM - - - N/A% 30.11 in 10.0 mi South 4.6 mph - N/A   Clear
11:35 AM 80.6 °F 84.6 °F 71.6 °F 74% 30.12 in 10.0 mi South 6.9 mph - N/A   Clear
11:55 AM 80.6 °F 83.9 °F 69.8 °F 70% 30.11 in 10.0 mi South 6.9 mph - N/A   Clear
12:15 PM 80.6 °F 83.9 °F 69.8 °F 70% 30.11 in 10.0 mi South 5.8 mph - N/A   Clear
12:35 PM 82.4 °F 85.4 °F 68.0 °F 62% 30.11 in 10.0 mi SW 6.9 mph - N/A   Clear
12:55 PM 82.4 °F 85.4 °F 68.0 °F 62% 30.11 in 10.0 mi SW 8.1 mph - N/A   Clear
1:15 PM 82.4 °F 85.4 °F 68.0 °F 62% 30.11 in 10.0 mi WSW 5.8 mph - N/A   Clear
1:35 PM 82.4 °F 85.4 °F 68.0 °F 62% 30.10 in 10.0 mi SW 6.9 mph - N/A   Clear
1:55 PM 84.2 °F 87.3 °F 68.0 °F 58% 30.10 in 10.0 mi South 8.1 mph - N/A   Clear
2:15 PM 82.4 °F 85.4 °F 68.0 °F 62% 30.10 in 10.0 mi SW 6.9 mph - N/A   Clear
2:35 PM 82.4 °F 85.4 °F 68.0 °F 62% 30.09 in 10.0 mi WSW 5.8 mph - N/A   Clear
2:55 PM 82.4 °F 86.3 °F 69.8 °F 66% 30.09 in 10.0 mi WSW 8.1 mph - N/A   Clear
3:15 PM 84.2 °F 87.3 °F 68.0 °F 58% 30.09 in 10.0 mi WSW 5.8 mph - N/A   Clear
3:35 PM 82.4 °F 85.4 °F 68.0 °F 62% 30.09 in 10.0 mi SW 6.9 mph - N/A   Clear
3:55 PM 86.0 °F 89.4 °F 68.0 °F 55% 30.09 in 10.0 mi WSW 9.2 mph - N/A   Clear
4:15 PM 82.4 °F 85.4 °F 68.0 °F 62% 30.09 in 10.0 mi WSW 6.9 mph - N/A   Clear
4:35 PM 82.4 °F 86.3 °F 69.8 °F 66% 30.10 in 10.0 mi SW 4.6 mph - N/A   Clear
4:55 PM 82.4 °F 86.3 °F 69.8 °F 66% 30.10 in 10.0 mi WSW 6.9 mph - N/A   Clear
5:15 PM 82.4 °F 86.3 °F 69.8 °F 66% 30.10 in 10.0 mi SW 5.8 mph - N/A   Clear
5:35 PM 80.6 °F 83.9 °F 69.8 °F 70% 30.10 in 10.0 mi WSW 4.6 mph - N/A   Clear
5:55 PM 80.6 °F 83.9 °F 69.8 °F 70% 30.11 in 10.0 mi WSW 4.6 mph - N/A   Clear
6:15 PM 80.6 °F 83.9 °F 69.8 °F 70% 30.11 in 10.0 mi SW 3.5 mph - N/A   Clear
6:55 PM 77.0 °F - 71.6 °F 83% 30.12 in 10.0 mi SSW 3.5 mph - N/A   Overcast
7:15 PM 77.0 °F - 71.6 °F 83% 30.13 in 10.0 mi Calm Calm - N/A   Overcast
7:35 PM 75.2 °F - 73.4 °F 94% 30.13 in 10.0 mi Calm Calm - N/A   Overcast
7:55 PM 75.2 °F - 73.4 °F 94% 30.13 in 10.0 mi Calm Calm - N/A   Overcast
8:15 PM 75.2 °F - 73.4 °F 94% 30.14 in 10.0 mi SW 3.5 mph - N/A   Overcast
8:35 PM 73.4 °F - 73.4 °F 100% 30.15 in 10.0 mi Calm Calm - N/A   Overcast
8:55 PM 75.2 °F - 73.4 °F 94% 30.15 in 10.0 mi SW 3.5 mph - N/A   Overcast
9:15 PM 75.2 °F - 73.4 °F 94% 30.16 in 10.0 mi Calm Calm - N/A   Overcast
9:35 PM 77.0 °F - 71.6 °F 83% 30.16 in 10.0 mi Calm Calm - N/A   Overcast
9:55 PM 75.2 °F - 73.4 °F 94% 30.18 in 10.0 mi SSW 4.6 mph - N/A   Overcast
10:15 PM 75.2 °F - 71.6 °F 89% 30.19 in 10.0 mi SSW 3.5 mph - N/A   Overcast
10:35 PM 75.2 °F - 71.6 °F 89% 30.19 in 10.0 mi Calm Calm - N/A   Overcast
10:55 PM 75.2 °F - 71.6 °F 89% 30.20 in 10.0 mi SSW 3.5 mph - N/A   Overcast
11:15 PM 73.4 °F - 71.6 °F 94% 30.20 in 10.0 mi South 3.5 mph - N/A   Overcast
11:35 PM 73.4 °F - 71.6 °F 94% 30.20 in 10.0 mi SW 3.5 mph - N/A   Overcast
11:55 PM 73.4 °F - 73.4 °F 100% 30.20 in 10.0 mi Calm Calm - N/A   Overcast